Regional Weather Roundup
Issued by NWS

Home | Current Version | Previous Version | Text Only | Print | Product List | Glossary On
Versions: 1 2 3 4 5 6 7 8 9 10 11 12 13 14 15 16 17 18 19 20 21 22 23 24 25 26 27 28 29 30 31 32 33 34 35 36 37 38 39 40 41 42 43 44 45 46 47 48 49 50
320
ASUS42 KTBW 250717
RWRFL
FLORIDA REGIONAL WEATHER ROUNDUP
NATIONAL WEATHER SERVICE TAMPA BAY RUSKIN FL
300 AM EDT SUN AUG 25 2019

NOTE: "FAIR" INDICATES FEW OR NO CLOUDS BELOW 12,000 FEET WITH NO
SIGNIFICANT WEATHER AND/OR OBSTRUCTIONS TO VISIBILITY.

FLZ001>010-012>015-112-114-115-250800-
PANHANDLE FLORIDA

CITY           SKY/WX    TMP DP  RH WIND       PRES   REMARKS
PENSACOLA      FAIR      79  79 100 NW3       29.94F
PENSACOLA NAS  FAIR      77  77 100 CALM      29.94F
MILTON NAS     FAIR      74  74 100 CALM      29.95F
CRESTVIEW      FAIR      75  73  93 E3        29.97F
DUKE FIELD     FAIR      75  75 100 NE6       29.95F
VALPARAISO     FAIR      78  75  91 CALM      29.94F
MARY ESTHER    PTCLDY    78  74  90 CALM      29.93F
TRI COUNTY     FAIR      76  73  91 CALM      29.95F
PANAMA CITY    FAIR      78  76  93 S3        29.94
TYNDALL AFB    FAIR      78  73  86 NW3       29.93F
APALACHICOLA   FAIR      76  72  87 CALM      29.93F

STATION/POSITION SKY/WX   TEMP    WIND        PRES    WAVE   SWELL
                          AIR SEA DIR/SP/G            HT/PER HT/PER
                          (F)     (DEG/KT/KT) (MB)    (FT/S) (FT/S)
30.1N   87.6W              84 86  300/  2/  4 1014.0F   1/ 5
29.2N   88.2W              85 87  160/  2/  4 1014.1F   1/ 5   2/ 5
28.8N   86.0W                 87  350/  6/  8 1013.8F   1/ 6
PANAMA CITY BEAC           82 87   60/  3/  5 1014.9
TOWER C                    81     120/  2/  4 1013.8F
28.5N   84.5W              85     360/ 10/ 12 1013.7F   1/ 3

$$
FLZ011-016>038-118-127-128-134-139-239-250800-
NORTH FLORIDA

CITY           SKY/WX    TMP DP  RH WIND       PRES   REMARKS
MARIANNA       FAIR      76  74  93 CALM      29.94F
TALLAHASSEE    FAIR      76  76 100 N3        29.94F
PERRY          MOCLDY    77  76  97 E3        29.95F
LIVE OAK       PTCLDY    77  77 100 CALM      29.95S
CROSS CITY     CLOUDY    79  75  87 E5        29.94F
LAKE CITY      FAIR      73  73 100 CALM      29.95F
GAINESVILLE    FAIR      74  73  97 CALM      29.95F
WILLISTON      FAIR      74  74  98 CALM      29.94F
MAYPORT NAS    FAIR      82  76  81 N5        29.94F
JACKSONVILLE   FAIR      77  75  93 N3        29.94F
JAX NAS        FAIR      83  76  79 NE7       29.94F
JAX CECIL      FAIR      73  72  94 CALM      29.94F
FERNANDINA BEA FAIR      78  76  94 MISG      29.95F
ST AUGUSTINE   FAIR      79  76  90 CALM      29.95F
PALM COAST     FAIR      76  75  97 CALM      29.93F

STATION/POSITION SKY/WX   TEMP    WIND        PRES    WAVE   SWELL
                          AIR SEA DIR/SP/G            HT/PER HT/PER
                          (F)     (DEG/KT/KT) (MB)    (FT/S) (FT/S)
SHELL POINT      NOT AVBL
KEATON BEACH               76      10/  5/  9 1014.2F
CEDAR KEY                  81      70/  7/  8 1013.7F
FERNANDINA                 85 86              1015.0
30.7N   81.3W                 84                N/A     2/ 7
MAYPORT                    81 85   10/  4/  4 1014.7
31.4N   80.9W              82 83   30/  6/  8 1014.3F   2/ 7   2/ 7
ST AUGUSTINE               81 84   50/  6/  7 1013.8F

$$
FLZ040-043>046-052-053-057-058-063-144-250800-
INTERIOR CENTRAL FLORIDA

CITY           SKY/WX    TMP DP  RH WIND       PRES   REMARKS
OCALA          FAIR      76  75  97 CALM      29.94F
LEESBURG       FAIR      78  75  90 NE5       29.94F
SANFORD        FAIR      78  76  93 N3        29.91F
ORLANDO EXEC   FAIR      80  75  84 N6        29.92F
ORLANDO INTL   FAIR      78  75  90 N6        29.92F
KISSIMMEE      FAIR      79  76  90 CALM      29.93F
WINTER HAVEN   FAIR      79  74  84 CALM      29.93F
BARTOW           N/A     79  75  89 NE6       29.91F
SEBRING        FAIR      76  75  95 CALM      29.93S
OKEECHOBEE     FAIR      73  73 100 CALM      29.90F

$$
FLZ041-047-054-059-064-141-147-250800-
EAST CENTRAL FLORIDA

CITY           SKY/WX    TMP DP  RH WIND       PRES   REMARKS
DAYTONA BEACH  FAIR      79  76  90 CALM      29.92F
DELAND         FAIR      77  75  94 NW5       29.92F
JFK SPACE CTR  CLEAR     76  77 100 N3          N/A
CAPE CANAVERAL FAIR      78  78  99 MISG      29.89F
PATRICK AFB    FAIR      81  79  95 NW7       29.90F
MELBOURNE      FAIR      78  75  90 NW6       29.90F
VERO BEACH     FAIR      76  75  97 NW3       29.90F
FT PIERCE      FAIR      77  75  93 CALM      29.90F
STUART         FAIR      79  77  94 CALM      29.92S

STATION/POSITION SKY/WX   TEMP    WIND        PRES    WAVE   SWELL
                          AIR SEA DIR/SP/G            HT/PER HT/PER
                          (F)     (DEG/KT/KT) (MB)    (FT/S) (FT/S)
28.5N   80.2W              81 83  300/  6/  8 1012.5F   2/ 7   2/ 7
28.9N   78.5W              83 85  160/ 10/ 12 1013.3F   3/ 8   3/ 8
TRIDENT PIER               81 83  320/  3/  6 1014.4
28.4N   80.5W                 83                N/A     2/ 5
27.5N   80.2W                 84                N/A     2/ 7

$$
FLZ050-056-061-142-242-148-248-149-249-151-251-155-255-
160-260-250800-
WEST CENTRAL FLORIDA

CITY           SKY/WX    TMP DP  RH WIND       PRES   REMARKS
CRYSTAL RIVER  FAIR      77  73  88 CALM      29.93F
INVERNESS      FAIR      75  75 100 CALM      29.93F
BROOKSVILLE    FAIR      77  74  90 CALM      29.93F
CLEARWATER AIR FAIR      81  73  78 CALM      29.92F
ST PETE CLEARW FAIR      82  74  76 SE5       29.92F
TAMPA INTL     FAIR      82  74  76 CALM      29.93F
TAMPA EXEC     FAIR      75  75 100 CALM      29.93S
PLANT CITY     FAIR      79  77  94 CALM      29.94F
MACDILL AFB    FAIR      80  74  82 SE5       29.92S
PETER O KNIGHT CLOUDY    81  77  89 CALM      29.93S
ST PETERSBURG  FAIR      83  75  77 E8        29.90F
SARASOTA       FAIR      79  76  90 E6        29.90F
VENICE         FAIR      81  77  89 CALM      29.93F

STATION/POSITION SKY/WX   TEMP    WIND        PRES    WAVE   SWELL
                          AIR SEA DIR/SP/G            HT/PER HT/PER
                          (F)     (DEG/KT/KT) (MB)    (FT/S) (FT/S)
27.3N   84.2W                 86                N/A     2/ 3
CLEARWATER BEACH           84 88   70/  4/  7 1013.7
MIDDLE TAMPA BAY           82     110/  7/  9 1013.7
VENICE                     80 86   70/  3/  4 1013.0F

$$
FLZ066-069-070-075>078-162-262-165-265-250800-
SOUTHWEST FLORIDA AND KEYS

CITY           SKY/WX    TMP DP  RH WIND       PRES   REMARKS
PUNTA GORDA    FAIR      78  77  96 NE5       29.93F
FT MYERS       FAIR      80  77  90 E5        29.90F
SOUTHWEST INTL FAIR      80  78  94 E5        29.90F
NAPLES         FAIR      81  78  91 CALM      29.90F
MARCO ISLAND   FAIR      81  78  91 S7        29.91F
IMMOKALEE      FAIR      79  77  94 CALM      29.89S FOG
MARATHON       MOCLDY    85  78  80 S8        29.92S HX  96
KEY WEST NAS   FAIR      86  77  74 SW7       29.92F HX  97
KEY WEST INTL  FAIR      85  77  77 SW7       29.92F HX  95

STATION/POSITION SKY/WX   TEMP    WIND        PRES    WAVE   SWELL
                          AIR SEA DIR/SP/G            HT/PER HT/PER
                          (F)     (DEG/KT/KT) (MB)    (FT/S) (FT/S)
NAPLES                     81 88              1012.8
26.0N   85.6W              84 85   30/  4/  6 1013.7F   1/ 4   2/ 4
DRY TORTUGAS               85     320/  2/  2 1013.5F
SAND KEY                   85     220/  8/ 10 1012.3F
SOMBRERO KEY               85     200/ 12/ 15 1013.6S
LONG KEY                   85                 1012.4F

$$
FLZ067-068-071>074-168-172>174-250800-
SOUTHEAST FLORIDA

CITY           SKY/WX    TMP DP  RH WIND       PRES   REMARKS
W PALM BEACH   FAIR      80  76  87 S5        29.91F
FT LAUDER-EXEC FAIR      80  77  90 S5        29.91F
FT LAUDERDALE  FAIR      80  77  90 SW7       29.91F
POMPANO BEACH  FAIR      82  77  84 S6        29.91F
PEMBROKE PINES FAIR      82  77  84 SW3       29.93F
OPA LOCKA      FAIR      81  77  88 SW5       29.92F
MIAMI          FAIR      82  77  84 SW5       29.92F
WEST KENDALL   FAIR      79  78  97 S3        29.92S
HOMESTEAD      FAIR      78  77  96 CALM      29.91F

STATION/POSITION SKY/WX   TEMP    WIND        PRES    WAVE   SWELL
                          AIR SEA DIR/SP/G            HT/PER HT/PER
                          (F)     (DEG/KT/KT) (MB)    (FT/S) (FT/S)
VIRGINIA KEY               84 87  210/  8/ 10 1012.9
LAKE WORTH                 82 86  190/  4/  5 1013.9
FOWEY ROCKS                84 85  210/ 14/ 15 1013.3F
SETTLEMENT POINT           84     190/ 12/ 14 1012.8F

$$





USA.gov is the U.S. government's official web portal to all federal, state and local government web resources and services.